Hourly Data Report for September 08, 2017

All times are specified in Local Standard Time (LST). Add 1 hour to adjust for Daylight Saving Time where and when it is observed.

RESOLUTE BAY A
NUNAVUT

74°43'01.000" N
94°58'10.000" W
67.70 m
2403498
71924
YRB

Download Data

Hourly Data (September 2017)
Hourly Data Report for September 8, 2017
Temp Definition
°C
Dew Point Temp Definition
°C
Rel Hum Definition
%
Wind Dir Definition
10's deg

Wind Spd Definition
km/h
Visibility Definition
km
Stn Press Definition
kPa
Hmdx Definition


Wind Chill Definition


Weather Definition


TIME
00:00 Legend Double Dagger -5.5 -6.7 91 35 58 3.2 99.43   -16 Blowing Snow,Blowing Sand
01:00 Legend Double Dagger -4.3 -5.4 92 35 54 3.2 99.38   -14 Blowing Snow
02:00 Legend Double Dagger -3.9 -5.1 91 36 54 3.2 99.44   -14 Blowing Snow
03:00 Legend Double Dagger -3.8 -5.1 91 35 46 3.2 99.47   -13 Blowing Snow
04:00 Legend Double Dagger -3.9 -5.5 89 1 57 4.0 99.41   -14 Blowing Snow
05:00 Legend Double Dagger -4.0 -5.6 88 36 41 9.7 99.40   -13 Blowing Snow
06:00 Legend Double Dagger -4.2 -5.9 88 1 45 12.9 99.36   -13 Blowing Snow
07:00 Legend Double Dagger -3.4 -4.8 90 36 41 4.0 99.30   -12 Freezing Drizzle
08:00 Legend Double Dagger -2.6 -3.9 90 35 39 24.1 99.24   -11 Snow
09:00 Legend Double Dagger -1.9 -4.0 86 36 40 24.1 99.17   -10 Snow Showers
10:00 Legend Double Dagger -1.6 -3.7 86 1 41 24.1 99.14   -10 Snow Showers
11:00 Legend Double Dagger -1.6 -3.7 86 1 44 24.1 99.07   -10 Snow Showers
12:00 Legend Double Dagger -1.1 -3.7 83 2 44 24.1 99.03   -9 Mostly Cloudy
13:00 Legend Double Dagger -1.1 -3.8 82 1 41 24.1 99.02   -9 LegendNANA
14:00 Legend Double Dagger -0.9 -3.7 82 2 41 24.1 98.98   -9 Snow
15:00 Legend Double Dagger -1.1 -3.4 84 1 39 24.1 98.94   -9 Snow
16:00 Legend Double Dagger -1.3 -3.4 86 1 34 24.1 98.92   -9 Snow
17:00 Legend Double Dagger -1.5 -3.5 86 1 38 24.1 98.87   -9 Snow
18:00 Legend Double Dagger -1.9 -3.9 86 1 43 24.1 98.87   -10 Snow
19:00 Legend Double Dagger -2.1 -3.9 88 1 48 24.1 98.85   -11 Snow
20:00 Legend Double Dagger -2.2 -4.2 86 2 52 16.1 98.84   -11 Freezing Drizzle,Blowing Snow
21:00 Legend Double Dagger -2.1 -4.2 86 2 54 16.1 98.83   -11 Blowing Snow
22:00 Legend Double Dagger -2.1 -4.3 85 2 57 16.1 98.84   -11 Blowing Snow
23:00 Legend Double Dagger -2.3 -4.4 86 2 54 16.1 98.88   -12 Blowing Snow

Notes on Data Quality.

Legend

  • E = Estimated
  • M = Missing
  • NA = Not Available
  • ‡ = Partner data that is not subject to review by the National Climate Archives
Date modified: